Theta_e
319 320 319 319 319 319 319 320 321 321 322 321 321 321 321 321 322 322 322 323 323 324 323 324 325 325 325 326 327 327 323 310 312 310 307 308 317 329 332 336 334 335 331 308 306 306 304 302 305 303 303 302 303 302 304 305 302 295 292 286 287 285 289 290 291 292 294 294 293 294 294 296 292 294 296 299 298 295 295 296 296 297 298 299 299 306 308 309
318 319 319 319 318 319 319 319 320 320 321 321 321 320 321 321 321 321 322 322 322 323 323 324 324 325 325 325 326 326 318 311 308 308 310 319 336 339 337 338 335 335 322 307 304 302 301 302 301 302 302 300 304 302 305 303 303 294 290 288 286 286 291 293 294 295 294 293 293 294 292 294 295 296 296 297 292 292 294 296 296 296 297 299 300 303 307 310
318 318 319 319 318 319 319 319 319 319 320 320 320 320 320 320 320 321 321 322 322 322 323 324 324 324 325 325 325 325 316 311 306 303 310 332 340 339 339 337 334 330 308 307 303 302 302 302 300 301 299 298 297 300 301 300 303 296 292 289 287 291 293 294 295 297 295 296 295 294 295 295 296 296 297 296 293 292 293 296 297 296 297 296 297 297 307 308
318 318 318 319 319 319 319 319 319 319 320 319 320 320 320 320 320 321 321 321 322 322 322 323 324 324 324 325 326 319 313 301 299 304 310 337 337 340 339 337 334 326 310 307 303 304 301 301 299 301 299 298 294 301 300 300 298 296 294 289 291 292 294 296 295 295 295 295 295 294 293 294 295 295 297 295 294 295 295 296 297 299 300 299 297 295 304 306
318 318 318 318 318 319 319 319 319 319 320 319 319 320 320 320 320 320 321 321 321 322 322 323 323 324 323 324 324 314 306 293 300 307 313 336 338 340 338 337 333 314 309 308 305 303 302 300 299 299 298 293 294 295 296 298 298 297 295 295 294 294 294 297 297 297 296 294 294 292 293 295 295 297 295 295 293 295 297 298 297 299 300 300 299 297 300 304
319 318 318 318 318 319 319 319 319 319 319 319 319 320 320 321 321 321 321 321 321 321 322 323 323 323 324 324 315 310 299 288 302 307 332 337 338 338 337 334 328 310 311 305 305 302 303 300 299 297 294 294 293 292 291 297 301 294 293 295 295 296 296 296 297 296 293 295 294 293 295 296 296 296 296 296 296 299 301 300 300 299 300 301 298 298 298 298
320 319 318 319 319 319 318 319 319 319 319 319 320 320 320 321 321 321 321 321 321 321 322 322 322 323 323 322 311 303 298 296 300 308 331 337 339 335 335 332 322 308 306 306 303 303 300 298 297 294 293 294 291 292 294 297 299 297 294 292 296 296 297 297 298 295 292 293 294 295 294 294 294 294 295 295 299 299 301 301 299 300 300 299 298 298 298 299
321 320 320 320 320 318 318 318 319 319 319 319 320 320 321 321 321 321 321 321 321 321 322 321 322 322 322 312 309 299 299 300 303 312 327 335 329 327 320 311 310 307 305 303 300 300 299 297 297 296 294 292 291 294 294 295 295 295 294 292 294 294 295 295 292 292 293 294 294 294 293 296 294 295 295 297 299 301 301 300 299 299 297 297 296 298 298 297
322 321 321 320 321 320 318 318 318 319 319 319 320 321 321 321 321 321 321 321 321 321 321 321 321 321 322 312 300 299 299 305 311 318 323 321 320 313 308 309 309 307 305 302 302 300 301 297 297 296 293 294 294 296 293 294 289 292 292 294 293 293 293 293 293 294 294 296 296 294 294 296 294 294 294 298 300 301 300 298 297 296 296 297 297 296 295 295
322 322 321 320 321 319 318 318 318 318 319 320 321 321 321 321 321 321 321 321 321 321 321 321 321 321 310 306 300 297 305 311 324 326 321 320 318 314 311 308 308 305 305 304 300 301 300 298 301 300 296 297 296 295 294 293 290 294 292 293 292 294 292 293 294 297 295 294 295 294 295 295 294 295 291 294 298 299 297 296 295 295 296 296 295 295 296 297
322 322 322 321 320 320 318 318 318 318 319 320 321 321 321 321 321 321 321 321 321 320 320 320 323 316 306 309 299 297 309 317 319 323 320 317 315 311 311 309 307 306 304 303 303 302 301 300 301 301 302 296 296 293 294 295 295 294 294 292 293 292 294 293 293 295 294 295 292 293 292 293 291 294 293 298 300 298 296 297 296 294 294 294 294 297 298 299
322 322 321 321 320 319 318 318 318 318 319 320 321 321 321 322 322 321 321 320 320 320 320 320 320 313 310 303 299 300 309 313 320 320 317 313 311 310 311 308 307 307 305 302 304 305 305 303 302 301 295 300 293 295 294 295 296 294 293 292 291 290 293 295 293 294 295 293 292 292 292 291 291 290 296 298 299 297 295 296 294 293 294 294 295 298 298 298
322 321 321 320 320 319 318 318 318 319 320 320 321 321 322 322 322 321 321 320 320 320 320 320 319 313 306 295 299 307 308 310 315 315 314 310 309 309 308 307 307 306 306 304 303 305 304 302 301 299 298 296 293 293 295 296 295 295 292 291 290 289 289 295 294 293 293 292 291 293 285 285 288 294 296 298 296 295 294 295 294 293 293 294 297 298 298 298
321 321 321 320 320 319 318 318 318 319 319 320 321 322 322 322 322 322 321 320 320 321 321 321 312 310 302 294 301 310 309 313 313 314 312 312 310 308 309 309 306 304 306 303 304 302 304 301 301 301 300 298 295 299 296 291 291 291 290 291 286 285 284 291 293 292 292 293 290 294 286 285 289 292 294 294 294 293 293 294 293 294 294 296 296 296 296 296
321 320 320 321 320 319 319 318 318 319 320 321 322 322 322 322 323 322 321 319 320 320 320 320 308 302 296 298 306 308 323 312 312 310 311 309 307 306 308 307 305 302 303 303 305 303 302 304 302 299 297 297 297 294 288 287 286 287 287 283 282 285 285 289 294 293 291 292 291 292 285 287 292 293 295 295 293 293 292 294 292 294 296 296 296 295 295 295
321 320 320 321 320 320 319 318 318 319 320 321 321 322 322 322 323 320 320 318 319 320 315 308 308 303 296 294 303 317 307 306 306 308 307 311 307 307 306 304 304 302 303 303 303 301 300 300 298 294 296 296 293 284 284 285 285 284 287 281 282 283 284 288 292 292 293 292 293 291 287 286 289 291 293 293 293 293 292 293 292 295 295 295 294 294 293 294
321 321 320 319 319 318 318 318 318 319 320 321 322 323 322 323 322 318 320 320 316 315 312 308 308 307 295 303 308 303 303 304 308 309 308 307 309 306 302 302 302 301 300 300 300 301 298 299 296 295 293 291 287 286 283 281 282 283 284 285 284 285 285 285 290 293 291 291 290 290 288 287 291 291 294 295 293 292 293 293 292 294 294 293 293 293 292 292
321 321 320 320 319 319 319 319 319 320 321 321 322 322 320 321 321 320 318 315 313 311 309 313 306 299 296 303 298 299 305 305 308 307 306 305 304 302 300 300 298 297 297 297 298 296 297 295 292 289 289 289 289 285 283 282 285 281 283 283 285 285 285 287 286 289 293 290 290 288 288 288 290 292 293 295 294 292 292 291 293 294 293 293 292 292 292 292
321 321 320 320 320 319 319 320 320 320 321 322 323 323 320 319 311 310 311 312 304 299 296 297 296 292 291 300 301 305 308 308 307 306 304 306 306 302 301 299 298 297 295 293 293 295 292 291 290 287 286 286 287 289 288 289 288 288 288 287 285 284 285 287 289 290 292 290 290 289 291 291 290 291 293 294 294 292 292 292 294 293 292 292 292 291 291 291
321 320 320 319 319 319 319 320 320 321 322 320 319 316 309 303 302 302 303 307 302 300 300 299 302 298 300 300 302 306 308 306 302 303 306 306 305 303 300 299 297 294 293 292 292 292 293 287 286 286 289 290 291 291 291 292 290 288 287 287 285 285 286 287 289 292 291 290 287 289 287 286 290 292 292 293 292 293 291 292 292 292 291 291 291 291 291 291
320 320 320 319 319 320 320 320 321 321 321 320 317 310 302 300 297 296 299 301 305 305 302 301 302 301 302 304 302 301 300 301 302 303 305 307 301 301 297 297 293 292 290 291 292 295 294 287 286 289 291 292 292 291 290 289 288 287 286 284 285 284 286 288 290 290 291 290 285 284 287 289 290 291 292 293 292 291 291 291 291 291 291 291 290 290 290 291
320 320 320 320 320 320 320 320 321 321 321 318 314 309 302 302 304 305 302 299 303 305 305 305 304 302 305 303 303 303 305 301 301 302 306 305 301 298 296 294 290 291 290 291 290 288 286 286 290 292 293 291 290 291 288 288 288 287 285 285 284 286 286 289 290 290 290 291 287 284 287 288 290 289 292 291 291 291 291 291 290 290 290 290 290 290 289 290
320 320 320 320 320 320 320 321 320 321 317 314 308 304 303 306 306 305 304 297 297 303 304 304 303 303 304 306 303 305 301 300 300 301 303 304 298 298 295 293 290 290 290 291 289 284 284 285 291 293 291 290 289 289 289 289 289 286 286 284 284 286 286 283 286 288 289 289 287 286 285 287 288 290 290 291 291 290 291 291 290 290 289 289 289 289 289 289
319 319 320 320 320 320 321 320 321 317 314 313 307 306 308 306 305 305 301 296 296 301 303 304 305 305 303 305 305 304 302 300 301 300 304 301 298 296 294 293 291 290 290 290 291 289 289 290 293 292 290 290 289 289 288 287 286 285 287 287 286 285 285 286 285 287 287 287 287 285 285 284 286 287 287 289 291 290 290 290 290 290 290 290 289 289 289 288
319 319 319 319 319 320 319 320 314 311 310 308 306 307 307 305 305 305 301 296 294 296 305 305 306 304 303 306 304 302 299 299 299 300 303 301 297 296 294 295 292 289 291 291 290 288 288 292 293 290 289 288 289 288 288 288 285 284 285 289 289 288 287 286 286 286 284 283 284 285 278 276 281 284 287 288 288 287 288 288 288 288 289 288 288 288 288 288
319 319 319 319 319 319 321 313 309 311 312 309 307 308 306 304 304 305 299 289 287 292 299 297 306 301 306 299 301 300 301 296 299 298 303 301 302 298 296 293 294 289 290 290 289 287 290 293 293 292 289 287 287 287 287 289 284 285 287 288 289 287 286 285 285 285 279 279 284 285 280 275 280 285 286 286 285 286 287 286 287 287 287 287 287 287 287 286
320 319 319 319 319 320 314 308 311 312 309 309 308 307 306 306 307 306 299 288 284 294 296 300 300 299 303 297 300 300 291 291 298 297 298 301 299 300 293 290 293 293 293 291 288 287 291 290 290 290 290 288 286 286 288 290 287 284 285 286 286 286 286 285 284 285 281 281 283 284 284 277 275 284 287 287 285 285 285 286 286 286 286 286 286 286 286 286
320 320 319 319 320 320 316 315 313 310 311 310 308 306 306 307 306 305 294 283 285 297 293 295 298 303 299 296 297 295 293 296 292 296 297 298 298 295 295 289 292 291 292 290 284 288 290 288 288 288 288 287 288 289 288 290 288 285 287 286 285 286 285 284 286 282 281 282 279 279 283 280 276 282 286 286 284 283 284 285 285 286 286 286 286 286 286 286
320 320 319 319 320 321 320 317 315 313 311 307 307 307 308 310 309 302 292 284 294 290 302 293 304 298 294 297 293 291 293 292 290 294 297 298 299 295 291 291 290 290 290 291 287 286 290 291 290 290 288 288 287 285 288 291 288 288 287 287 285 285 284 284 282 283 280 280 275 280 282 278 278 281 284 285 285 283 284 285 285 285 285 284 285 285 285 285
320 320 320 319 319 317 316 316 314 313 309 309 308 309 312 310 306 294 286 281 298 290 294 295 294 290 292 291 291 291 291 290 292 294 294 293 294 295 294 294 290 289 290 285 288 288 291 292 293 290 289 289 286 288 287 290 289 288 286 285 284 282 281 280 279 278 277 273 278 282 282 283 276 281 283 284 285 284 285 284 284 284 284 284 284 284 284 284
319 320 320 319 315 316 316 310 315 310 310 309 310 312 311 306 295 287 283 290 295 293 294 293 290 293 290 289 287 290 289 290 292 291 291 293 293 291 291 290 290 284 282 282 284 285 288 289 290 289 292 290 289 288 287 286 287 286 284 282 284 282 278 277 273 276 273 271 276 278 281 282 276 277 281 284 284 286 287 284 283 283 283 283 284 284 284 284
316 319 320 318 318 319 314 312 314 311 310 310 313 310 305 292 296 286 286 300 291 292 288 288 291 289 289 290 286 287 287 291 291 290 287 286 286 287 286 284 286 280 281 281 283 283 286 288 287 289 292 292 288 287 285 284 284 285 282 282 277 274 274 274 273 273 272 275 278 279 281 280 281 282 284 283 283 284 286 286 285 284 284 283 284 285 285 286
313 314 317 319 317 316 316 311 310 310 310 312 311 308 297 289 284 291 290 293 289 293 292 293 290 290 290 291 289 289 290 287 290 289 288 288 286 287 286 287 286 286 282 281 283 281 284 283 287 288 290 291 289 286 282 284 283 283 284 279 276 273 272 267 269 269 271 275 278 281 282 281 281 283 283 283 283 284 286 286 285 284 284 284 284 284 284 285
313 314 313 313 316 314 312 310 310 311 311 312 307 299 292 285 286 297 295 292 293 296 297 294 295 296 294 290 292 292 289 292 290 290 291 289 288 285 289 290 289 291 289 283 284 281 278 280 285 288 286 289 291 290 289 283 282 284 282 285 281 273 268 268 268 273 274 275 277 279 278 273 278 281 281 283 283 284 285 285 284 284 284 283 283 283 282 282
313 313 313 313 313 311 310 311 310 312 312 308 300 294 286 286 287 288 289 292 293 297 295 297 294 292 292 293 296 296 296 292 292 291 289 289 287 286 288 290 292 292 287 286 284 280 283 283 285 289 289 290 289 289 286 284 284 283 281 282 279 280 279 276 269 269 270 274 274 275 278 277 280 282 283 283 283 283 283 283 284 283 283 282 282 282 282 282
311 309 312 311 312 312 311 311 311 313 311 303 294 287 287 289 285 288 290 299 297 294 295 295 293 290 288 289 292 293 296 293 293 290 288 287 287 286 288 290 291 293 289 286 284 281 283 280 285 289 289 289 287 288 289 287 282 283 284 279 281 283 284 274 273 275 274 271 275 272 279 281 282 282 282 282 282 282 282 282 282 282 282 281 281 282 281 282
305 308 306 308 310 312 311 311 312 311 308 301 293 288 292 290 293 293 297 297 297 297 294 290 291 289 288 288 289 291 293 294 290 287 285 287 287 289 287 290 293 293 295 294 286 287 283 280 284 286 287 290 286 287 286 285 286 284 280 283 284 284 282 279 273 269 265 270 272 273 276 277 279 274 280 280 279 280 280 280 281 281 280 281 282 281 281 281
303 303 305 304 309 312 311 312 313 309 304 299 291 293 293 291 297 298 298 297 298 297 293 292 292 294 289 288 288 290 293 291 289 289 283 287 288 292 287 289 293 293 295 294 290 288 288 281 283 286 286 288 287 289 288 287 288 284 282 284 285 277 276 277 271 269 268 267 267 273 275 277 279 279 278 279 279 280 280 280 280 281 281 281 281 281 281 281
302 302 299 305 311 312 311 313 311 306 300 293 289 290 296 295 298 297 298 299 299 297 292 293 291 294 292 288 289 292 292 288 289 287 287 287 286 291 290 290 291 291 292 293 290 287 288 281 280 286 287 288 285 285 281 283 287 285 286 285 283 280 275 274 279 272 272 266 268 267 272 276 279 281 281 283 282 281 281 280 281 282 282 282 281 281 281 282
300 298 296 307 312 312 312 312 306 302 297 288 289 290 297 294 298 300 299 300 296 296 293 293 294 291 293 292 292 291 290 291 288 288 289 290 291 294 291 293 290 291 291 292 292 291 287 285 276 282 284 287 283 285 282 284 282 283 283 280 283 281 281 280 279 276 274 268 269 272 273 274 278 281 282 284 284 283 282 282 282 282 282 282 283 283 283 283
299 296 296 308 312 313 313 308 300 296 295 295 295 293 295 295 298 299 301 301 299 302 297 294 294 292 292 291 292 292 290 290 289 288 289 290 289 286 292 291 293 292 292 291 290 287 284 284 282 281 284 282 282 285 287 285 287 284 285 282 284 280 277 276 276 280 274 277 272 274 274 280 282 285 283 283 283 283 283 282 282 282 284 284 284 285 285 285
295 289 294 309 312 312 307 297 297 298 294 293 292 296 295 302 297 296 299 299 299 296 300 296 295 294 292 292 290 289 289 287 288 288 288 289 292 291 292 293 292 292 291 286 288 289 288 282 281 281 283 286 286 288 286 287 286 284 286 283 284 282 281 276 275 275 275 277 279 275 275 280 282 282 283 283 284 284 284 284 284 285 284 285 286 286 287 287
292 290 303 306 311 310 303 295 297 295 294 295 298 298 299 297 295 296 297 297 296 297 294 294 295 293 294 293 292 289 291 285 288 288 287 287 289 291 292 291 292 290 290 287 289 288 291 281 281 282 281 282 285 286 287 285 289 288 285 282 283 283 283 282 281 277 275 274 276 277 276 281 285 284 283 283 283 284 285 285 286 286 285 286 286 286 287 287
291 295 299 306 307 308 299 289 290 292 295 295 296 296 298 297 295 293 295 296 296 293 292 292 293 297 293 294 292 289 292 286 290 289 288 289 288 291 288 291 293 287 289 288 288 290 283 281 281 277 278 280 281 284 285 286 284 282 282 283 283 283 281 279 278 278 278 280 281 277 273 281 284 281 283 283 283 284 285 286 287 286 287 286 286 286 286 286
290 294 297 300 305 303 294 295 293 293 294 294 293 293 294 294 295 298 297 295 296 293 292 291 295 293 292 292 291 291 291 291 287 287 289 285 287 286 285 286 290 287 287 289 293 290 284 282 282 276 276 275 273 271 271 277 283 281 279 281 283 282 281 280 277 278 277 282 282 279 279 284 284 281 283 283 283 283 284 284 284 284 285 285 285 285 284 284
288 283 293 295 300 299 297 298 295 290 289 292 291 293 294 292 293 294 298 296 298 293 294 291 291 293 289 289 288 288 288 289 289 285 286 286 284 281 282 284 287 286 290 293 289 288 280 282 282 282 281 279 279 273 279 281 280 276 279 281 280 281 281 281 280 278 277 280 278 280 280 279 282 281 279 279 278 282 284 283 283 284 283 282 282 282 281 281
287 283 288 285 296 295 294 297 293 292 286 291 288 291 290 292 293 292 297 291 294 295 292 293 291 290 287 289 287 287 288 287 287 287 284 283 284 283 284 285 286 287 292 289 288 280 278 280 281 278 280 279 279 280 282 283 281 280 279 279 281 280 278 278 278 276 281 276 274 281 280 277 280 283 282 281 281 281 282 283 283 282 282 282 281 280 282 279
283 286 291 294 290 286 288 290 294 292 291 289 286 287 286 288 289 287 291 292 291 293 291 287 290 293 290 290 286 284 285 285 286 286 284 281 281 285 286 285 285 287 287 285 284 285 281 279 277 281 279 280 281 282 282 282 282 281 281 280 281 282 279 275 274 279 279 277 276 281 280 276 279 282 281 281 283 283 284 284 285 286 284 280 279 279 279 279
286 284 285 289 285 286 291 293 294 293 291 291 287 287 284 285 286 289 288 288 290 288 293 286 287 289 289 289 289 285 284 282 282 283 283 282 279 279 280 282 286 283 284 283 283 280 278 274 277 279 277 279 279 279 281 279 278 278 279 279 280 280 280 279 278 279 279 278 280 280 279 279 281 282 282 280 281 283 283 283 282 282 282 281 280 279 279 278
283 283 282 284 286 284 285 292 292 292 289 292 287 288 287 284 284 286 288 288 285 287 289 288 288 285 288 287 288 287 286 288 285 285 281 283 280 280 280 281 280 282 282 282 285 283 284 277 280 274 271 268 272 277 278 279 278 277 278 278 279 278 278 278 278 278 278 277 279 279 278 278 283 283 281 279 277 279 279 279 281 282 282 280 280 279 279 278
286 285 284 282 281 282 284 289 290 290 287 289 288 289 289 288 287 287 286 289 289 286 287 288 289 284 283 287 287 288 284 281 282 285 284 286 285 284 284 281 283 278 280 279 281 279 280 273 273 268 269 266 269 274 275 275 274 272 274 277 277 277 275 278 276 278 276 275 277 275 273 276 282 280 279 278 276 277 278 279 279 279 279 280 279 279 279 278
285 284 286 282 278 285 284 283 287 288 284 289 289 289 288 288 287 287 286 287 285 286 287 289 287 288 283 284 285 288 287 283 283 284 283 283 283 281 280 281 284 282 277 280 279 275 276 273 271 266 267 264 268 270 273 267 268 270 272 275 276 277 278 278 278 278 279 280 274 272 274 279 279 279 279 278 276 276 275 275 275 276 278 279 279 279 278 277
Wind_Speed
9 9 9 9 10 10 11 10 10 10 10 9 9 10 10 10 10 11 11 11 11 11 12 13 12 13 13 13 13 13 12 3 3 0 1 7 4 4 9 3 11 9 7 3 2 4 1 2 0 4 2 2 2 1 1 1 1 2 1 3 1 3 1 4 4 3 0 1 4 5 1 1 3 3 3 2 2 1 5 6 4 3 5 4 2 2 2 3
8 8 8 8 8 9 9 10 10 10 10 9 9 9 9 10 10 10 10 11 11 12 12 13 13 13 13 13 13 13 8 2 4 4 10 4 6 6 6 5 10 11 7 2 4 2 4 0 1 2 1 1 1 0 1 1 1 2 1 1 5 4 5 4 3 2 0 4 4 4 3 2 4 0 2 1 4 3 6 8 3 5 7 9 9 3 2 4
7 7 7 8 8 8 8 8 9 9 9 9 9 9 9 10 10 11 11 11 11 12 12 13 13 13 13 13 13 12 5 3 2 2 2 5 3 5 5 7 10 12 5 2 3 6 3 3 2 2 2 0 3 1 2 1 1 2 4 2 5 7 4 5 4 6 4 2 4 5 2 1 4 0 0 1 5 4 7 10 10 7 8 5 7 3 1 4
6 7 7 7 8 8 7 8 8 8 8 8 9 9 9 9 10 11 11 11 12 12 13 13 13 13 14 14 13 7 0 2 1 1 1 5 4 1 4 7 9 7 3 6 4 3 1 3 2 3 1 0 3 1 0 3 1 2 2 4 4 4 2 5 4 5 4 3 3 4 3 6 6 3 0 0 5 7 8 8 9 13 15 9 5 6 2 4
5 5 6 7 7 8 8 8 8 8 8 8 8 9 9 9 10 10 11 12 12 13 13 13 14 14 14 14 14 2 3 3 1 1 2 2 3 3 3 6 6 3 2 1 4 3 3 2 3 1 1 2 1 1 3 2 2 4 7 5 5 1 1 8 7 7 2 3 3 5 6 6 3 2 1 2 4 11 8 9 7 11 11 10 8 6 3 5
4 6 5 6 7 7 8 8 9 8 8 8 9 9 10 10 10 10 10 11 12 13 14 14 14 15 15 16 5 1 2 1 1 0 1 1 4 4 4 7 6 3 0 2 1 0 2 2 3 1 0 1 2 3 3 1 1 3 3 3 5 5 5 2 1 2 4 5 5 5 3 2 2 7 3 5 9 9 10 9 9 9 10 10 5 3 4 5
3 2 3 5 7 8 8 8 8 8 8 8 9 9 10 10 10 10 11 11 11 12 13 13 13 14 16 11 0 2 2 5 2 4 2 3 4 5 6 6 7 4 3 1 0 1 1 2 2 2 2 0 3 3 5 0 1 4 6 1 6 4 7 7 5 6 5 4 6 3 4 5 3 11 0 4 11 10 13 9 8 10 9 7 7 7 7 7
4 3 3 3 4 8 8 8 8 8 8 8 9 10 10 10 11 10 10 11 11 12 12 12 12 12 12 3 1 1 2 6 8 2 2 6 6 6 7 4 4 4 4 4 5 2 2 3 4 2 1 4 2 3 1 1 1 4 4 3 4 1 4 5 5 6 7 8 6 3 5 11 3 6 6 16 16 13 11 5 7 7 6 6 5 9 7 6
2 4 4 2 3 2 7 7 8 8 8 8 9 10 10 10 10 10 10 11 11 12 11 11 11 9 6 0 3 2 6 5 4 2 3 6 5 5 3 2 1 4 2 2 0 3 4 3 1 4 3 1 1 1 2 1 6 3 4 0 2 3 5 6 7 7 7 6 2 4 10 11 6 4 5 18 16 15 5 3 5 6 7 8 6 5 6 6
4 4 3 2 2 4 7 7 8 8 8 9 9 10 10 10 10 10 11 10 11 10 11 9 8 7 3 2 3 1 5 3 1 3 4 6 5 5 6 2 4 4 3 0 4 2 2 2 2 3 3 0 2 2 0 3 4 1 2 2 4 7 5 3 5 11 6 4 3 4 12 11 2 3 7 5 11 9 3 5 4 4 7 8 6 8 8 11
3 3 4 2 2 4 7 8 8 8 8 9 10 10 10 10 11 11 11 11 10 9 8 7 3 3 0 1 3 7 3 3 0 3 5 6 7 6 2 3 3 4 3 2 1 2 2 3 3 3 1 2 1 3 0 2 0 1 2 5 5 6 6 5 6 14 3 6 3 7 7 5 3 1 9 12 13 5 5 8 5 3 4 5 6 8 6 9
5 4 5 5 4 7 8 8 8 8 9 10 10 10 11 11 12 12 11 10 9 7 6 5 3 1 0 2 7 7 2 1 1 3 4 5 3 6 4 5 3 4 5 2 0 1 3 3 4 1 2 0 1 1 1 1 0 1 3 6 7 6 7 8 7 5 2 5 2 6 1 7 1 5 13 13 8 7 7 10 5 4 1 4 8 9 10 9
2 3 2 4 5 6 7 8 9 9 10 10 10 11 12 12 13 12 11 9 7 6 4 4 3 1 1 1 8 6 2 2 4 6 2 2 3 2 1 1 4 3 4 4 2 1 2 4 3 2 2 2 2 1 1 1 2 2 1 0 8 4 7 13 0 1 1 4 5 5 3 7 8 11 12 10 6 6 9 10 5 4 6 8 8 9 9 10
4 4 2 4 5 4 8 9 9 10 10 10 11 12 13 14 13 12 9 6 7 5 3 2 3 1 1 5 4 2 3 0 5 5 2 0 4 1 1 3 3 2 1 4 1 1 1 1 4 2 1 1 2 2 3 4 2 3 2 1 4 4 6 7 0 1 5 1 4 3 4 7 10 11 11 9 2 3 7 8 6 6 8 8 7 8 9 10
6 4 4 6 4 3 5 9 9 9 9 10 12 14 15 14 13 9 6 2 2 5 3 4 2 2 1 6 3 4 3 1 3 2 2 3 3 0 0 1 3 3 1 4 1 0 2 2 2 1 1 0 1 1 3 3 3 1 2 5 3 4 7 10 8 3 2 2 3 5 2 8 9 11 11 9 4 0 5 6 6 8 8 8 7 8 8 8
5 4 3 4 4 5 6 9 9 9 10 12 13 14 12 12 10 4 0 1 3 3 3 0 0 1 1 5 0 1 2 1 2 1 0 2 3 1 1 3 1 3 2 2 2 2 4 3 1 3 1 1 1 2 3 5 4 3 3 4 4 1 5 8 5 1 4 2 1 4 6 3 5 7 9 6 4 7 6 6 6 8 8 8 7 7 6 7
5 4 4 4 5 7 8 8 9 11 11 11 13 12 12 8 2 1 1 2 2 3 1 1 0 0 1 1 1 0 3 3 2 1 1 1 2 4 4 3 1 1 4 4 5 3 3 1 1 2 3 1 3 5 2 3 7 4 0 5 4 4 2 3 9 4 3 2 1 1 2 6 7 10 13 14 5 6 8 6 6 8 8 7 7 8 8 9
6 4 5 6 5 6 6 7 10 11 11 11 11 12 8 2 4 2 2 3 1 1 0 1 2 1 8 1 2 3 0 1 1 2 1 1 4 4 3 2 1 4 2 1 3 2 2 1 3 4 2 1 2 3 3 7 6 5 2 2 6 2 4 8 2 3 7 2 2 4 5 8 10 10 11 11 6 4 5 4 8 8 7 7 8 8 8 9
5 4 4 4 4 5 7 8 10 11 11 13 13 8 3 5 3 2 2 0 1 1 1 2 3 4 3 2 2 3 1 2 1 2 2 2 0 3 3 3 4 4 0 1 2 2 1 4 5 2 5 3 6 9 11 11 4 7 7 6 2 4 5 5 5 5 1 5 7 6 10 10 9 9 10 7 5 4 4 8 8 7 7 7 8 8 8 8
6 5 6 4 4 5 7 9 11 11 12 10 6 2 0 1 1 0 1 1 3 5 1 3 5 2 5 4 2 0 1 1 3 1 0 2 3 2 1 2 3 5 4 3 1 2 2 4 6 8 10 10 9 12 13 10 4 2 1 1 6 5 6 4 4 8 1 3 4 5 4 4 9 10 7 8 6 10 5 9 7 6 7 8 8 7 8 9
8 8 7 7 7 5 7 9 9 9 9 5 6 1 1 2 1 3 2 7 5 4 4 4 11 8 6 3 2 4 3 1 1 0 1 1 2 6 2 2 2 1 2 3 4 1 3 5 8 11 11 12 13 9 5 3 2 4 4 4 8 4 9 5 5 2 4 1 3 1 3 8 10 6 7 6 11 12 7 7 8 8 8 7 7 7 7 5
8 8 8 7 7 7 10 9 9 8 7 4 1 0 1 0 0 1 1 4 3 7 8 12 2 6 4 4 4 3 2 0 2 2 1 2 2 5 2 4 3 7 1 3 2 2 2 7 11 14 12 2 2 1 4 6 5 1 4 4 4 8 3 9 7 2 2 0 6 2 3 7 10 4 6 10 10 7 8 6 4 7 7 6 7 6 6 7
9 9 9 7 7 9 9 8 7 8 2 1 1 1 1 1 1 1 1 1 6 3 3 5 5 10 8 1 2 2 5 7 7 3 5 3 2 4 4 4 4 3 2 4 8 3 3 5 15 14 2 4 4 3 3 1 1 2 3 1 8 3 1 6 4 3 3 1 3 2 4 8 3 7 9 7 6 7 7 9 9 7 9 8 7 5 5 7
10 10 9 7 7 9 8 7 8 4 3 3 1 2 0 0 1 2 1 2 4 6 7 5 4 2 6 3 3 7 8 3 2 4 2 5 7 3 3 5 6 3 6 8 9 11 11 8 3 1 4 6 7 6 3 2 6 3 5 7 5 3 4 7 5 2 3 2 1 3 4 6 3 3 3 3 5 7 6 7 7 7 7 6 5 7 7 7
11 10 9 8 8 7 6 6 3 4 2 2 0 1 1 1 1 4 1 3 1 5 2 1 3 1 2 1 1 5 1 0 2 0 2 4 5 3 4 2 3 6 6 7 5 5 7 9 1 3 3 5 5 7 5 5 4 3 6 10 8 5 5 4 2 4 7 4 2 2 5 3 2 2 4 4 2 5 3 6 7 6 6 5 7 7 6 7
10 10 8 8 9 5 3 2 3 0 1 2 2 2 1 1 1 1 2 1 6 4 3 4 2 2 1 0 2 3 3 3 0 1 1 2 1 2 1 1 3 7 7 2 6 4 8 6 4 6 5 4 5 6 4 7 5 0 7 7 7 5 3 2 0 2 2 2 1 2 1 7 7 5 5 2 4 5 3 5 5 5 5 5 5 5 5 6
11 10 9 10 8 5 1 3 1 0 0 2 2 1 0 0 0 1 1 3 4 4 5 1 0 1 1 0 2 3 2 4 0 2 1 2 3 1 3 5 1 0 3 2 3 5 2 3 4 4 5 4 4 5 5 9 6 5 2 4 5 5 2 1 2 2 4 1 5 1 3 4 4 9 4 6 6 4 4 4 4 4 4 4 4 4 5 6
12 12 11 11 10 10 3 0 1 1 2 0 2 3 2 1 3 1 2 4 4 1 2 1 0 1 1 0 3 2 1 2 2 2 0 2 1 2 1 3 6 6 1 3 7 4 3 2 3 5 5 6 8 6 4 8 6 4 3 6 3 3 2 2 1 2 1 1 7 4 0 1 4 7 1 7 5 3 3 3 3 3 3 3 4 5 5 5
14 13 13 11 11 14 5 2 1 3 1 2 2 2 1 2 0 1 2 4 1 2 2 2 3 1 1 1 2 1 0 1 1 1 2 2 4 2 1 4 3 1 1 4 8 2 2 2 4 7 6 8 5 1 6 10 5 2 5 4 4 4 3 2 2 1 1 1 6 5 3 3 7 5 3 0 2 5 6 5 4 3 3 3 3 4 5 4
14 14 13 12 7 6 4 1 5 1 6 4 4 3 3 3 2 3 2 7 1 1 1 1 1 2 2 4 0 1 1 1 1 0 3 2 2 3 1 1 2 0 1 4 2 6 1 4 4 4 5 5 4 1 1 1 2 4 5 2 3 6 2 3 5 2 2 3 7 9 8 7 5 4 6 6 5 3 8 3 3 3 3 3 3 3 3 4
14 14 15 14 6 4 4 4 7 6 6 5 5 4 3 1 3 2 9 2 2 1 1 1 2 2 5 6 4 0 2 0 0 1 1 1 1 3 1 1 4 3 2 3 4 5 3 2 0 2 2 3 4 3 4 2 2 4 2 2 4 3 6 3 3 4 1 7 6 3 7 4 6 5 3 2 6 4 15 14 11 9 5 4 3 3 3 3
7 11 13 12 5 6 8 4 5 9 8 7 5 3 3 5 1 8 3 1 1 2 3 2 0 2 4 0 4 4 4 0 1 1 4 3 4 4 4 6 4 2 3 3 5 3 3 7 2 5 3 7 1 4 2 4 3 5 5 6 3 4 5 2 2 1 5 6 2 1 5 2 9 6 3 6 6 6 1 10 14 12 8 5 4 3 3 2
6 5 10 9 5 4 4 2 4 6 7 6 5 4 3 3 9 7 0 3 2 3 3 4 3 4 4 3 3 2 1 3 2 1 4 0 3 5 3 3 3 3 2 2 3 2 6 2 2 4 3 3 6 6 1 0 0 6 5 5 5 1 2 4 5 2 5 6 4 3 1 3 3 2 4 4 4 3 6 8 7 8 9 7 5 4 3 2
8 8 5 3 4 1 3 6 7 9 8 6 5 3 2 4 6 1 8 2 1 1 3 2 2 1 4 5 4 6 2 2 7 3 3 2 2 2 4 5 3 2 1 1 3 5 1 4 6 5 4 2 6 9 9 6 7 8 3 9 8 8 5 4 3 5 5 5 2 4 1 5 3 1 4 3 3 3 6 8 6 5 6 5 4 4 3 2
5 3 4 3 2 1 6 5 8 7 7 7 4 4 7 8 1 3 4 2 1 1 1 2 2 2 2 1 0 3 1 2 3 3 3 5 5 3 5 5 5 3 1 3 3 2 5 5 5 3 2 6 8 2 6 5 4 1 3 5 5 6 4 4 4 2 2 3 4 2 5 1 2 0 1 2 3 5 4 7 7 7 4 4 4 4 4 3
3 1 1 2 3 3 4 5 6 7 9 5 5 2 11 5 4 2 1 3 2 4 3 3 2 3 2 1 2 3 6 1 1 3 1 3 2 4 3 3 6 11 6 7 3 3 2 3 1 4 3 5 4 3 1 3 5 3 4 4 6 3 4 1 2 1 2 2 9 2 5 0 0 1 1 1 4 2 3 4 5 5 4 4 5 4 4 4
3 2 2 0 1 3 6 6 5 4 2 4 6 10 3 1 3 3 3 1 2 6 5 7 4 6 4 5 3 3 2 3 1 3 3 1 4 6 3 5 4 7 12 9 4 4 5 5 1 3 4 2 1 1 3 3 3 7 2 7 2 2 3 4 4 3 2 4 7 2 7 2 2 6 1 0 2 3 3 4 4 4 4 6 5 5 5 4
1 1 1 2 4 6 5 6 5 3 2 3 10 7 1 2 2 1 0 2 2 2 3 7 2 5 4 5 2 4 1 5 2 3 3 3 3 3 3 2 1 6 10 3 4 2 4 4 4 2 2 3 1 3 2 2 1 2 2 2 3 3 1 2 4 3 2 3 5 4 1 3 8 6 2 6 8 10 7 5 6 8 8 8 6 5 4 3
2 1 1 1 1 7 6 5 3 4 2 1 4 6 1 3 2 1 3 3 1 2 3 3 3 2 3 3 3 0 4 5 4 5 2 2 3 3 3 4 1 1 1 6 3 1 1 3 5 1 2 0 1 4 6 3 1 1 1 2 1 2 3 4 5 4 3 4 2 7 3 9 4 5 14 12 14 12 10 8 12 12 9 7 6 6 6 5
2 2 2 0 2 4 6 4 4 2 3 8 4 4 0 1 4 5 3 5 2 2 2 1 1 1 2 5 5 4 2 3 5 4 3 2 6 1 2 4 2 0 3 2 3 1 2 2 4 1 2 1 2 2 6 9 6 1 1 1 0 0 2 3 1 4 4 2 4 5 9 4 2 2 8 10 10 15 17 16 11 8 7 7 8 8 7 6
1 2 1 1 4 4 5 4 2 6 7 2 3 4 1 3 1 4 4 3 1 2 2 3 3 5 3 2 5 2 2 4 3 5 4 3 4 3 0 1 2 1 1 2 3 0 1 1 7 0 1 4 6 3 4 4 6 7 9 8 8 5 1 3 9 2 1 3 4 4 12 7 2 0 2 4 3 10 10 7 7 7 11 10 7 7 7 7
5 2 2 1 3 7 7 8 6 2 2 9 8 6 4 5 2 2 2 1 4 2 1 0 2 4 3 5 2 3 3 2 4 4 3 7 3 5 0 5 0 1 3 4 7 1 3 2 2 6 7 8 3 1 1 2 3 3 6 5 5 2 4 2 7 6 0 4 0 3 4 9 0 4 4 3 5 9 10 11 12 11 10 9 8 7 7 7
3 3 3 3 2 8 6 7 4 5 8 4 4 3 3 1 3 3 6 3 2 2 2 3 5 3 4 3 1 2 3 3 5 6 2 3 4 2 2 3 1 5 1 1 3 1 6 1 3 4 3 3 2 2 4 3 1 1 1 2 4 4 5 7 5 3 3 2 1 2 6 3 1 1 2 2 3 6 8 10 12 9 7 6 7 7 8 7
2 3 1 1 1 2 7 10 9 8 9 0 7 7 3 4 4 2 5 4 6 3 5 4 1 6 3 3 3 5 6 1 4 5 4 4 2 1 5 2 3 2 3 3 4 3 2 3 6 1 2 3 3 2 4 2 3 1 1 1 1 2 3 2 4 1 1 6 5 3 10 6 0 2 2 3 4 6 8 6 4 7 7 7 7 7 7 7
3 2 1 1 1 4 11 5 7 8 9 9 5 11 6 3 5 8 7 7 3 4 2 3 5 4 4 4 5 3 5 9 2 3 3 0 3 2 5 5 3 4 2 2 3 3 3 3 5 4 8 8 6 4 3 5 7 2 0 1 0 4 4 3 3 3 6 2 6 6 11 3 1 2 0 0 2 4 3 4 3 4 6 7 6 6 7 7
2 3 2 1 2 4 4 2 1 2 5 7 8 6 5 8 1 1 9 6 6 3 1 1 0 4 4 3 3 4 6 3 7 2 4 3 2 2 3 6 2 2 3 3 1 3 2 1 3 6 8 11 8 3 2 2 2 2 2 2 3 2 2 2 2 2 6 2 5 7 6 4 10 2 3 5 3 7 7 5 6 6 6 5 5 6 7 7
1 4 5 6 2 6 8 3 3 3 4 4 6 3 10 11 3 1 7 4 4 6 1 4 3 5 3 4 5 4 5 5 4 2 5 4 2 3 4 1 2 5 3 1 1 4 2 1 5 4 5 3 4 3 3 2 2 2 2 6 6 6 4 5 7 6 3 2 11 9 5 5 11 11 7 7 6 6 5 5 6 5 5 9 8 6 6 5
3 4 4 3 5 8 11 10 10 6 4 2 5 1 4 9 8 8 1 3 0 4 7 1 4 9 7 9 4 4 5 5 6 8 2 0 2 1 1 2 2 3 2 0 1 3 4 5 2 3 4 4 3 5 1 1 2 2 5 7 10 9 5 8 5 6 6 10 15 11 4 4 6 11 4 7 8 10 10 10 11 11 6 3 5 7 9 8
1 1 1 2 2 2 11 7 12 13 10 9 4 3 3 7 10 9 4 0 2 3 9 8 6 9 7 6 7 7 6 5 7 1 4 4 5 3 1 2 2 3 1 1 2 1 4 3 3 1 3 1 1 3 4 5 2 3 7 11 11 11 12 6 7 10 13 10 10 10 9 14 14 14 4 5 8 8 6 5 2 3 7 9 9 9 9 9
4 2 3 3 1 1 1 7 7 13 14 12 10 11 4 3 6 3 1 5 3 5 3 11 9 5 9 10 11 12 8 9 6 8 3 5 2 2 4 5 3 1 1 2 1 2 3 4 6 1 1 3 4 2 2 3 5 8 10 11 12 8 5 8 9 9 5 6 11 13 13 16 15 3 2 4 3 1 1 4 9 8 7 8 10 10 10 9
1 1 1 3 3 3 1 5 8 11 10 10 15 13 5 8 9 4 3 1 6 4 6 14 9 6 5 9 11 13 6 7 7 9 11 11 11 6 7 4 6 4 2 1 0 2 2 4 4 2 2 4 2 0 1 2 1 4 9 14 11 7 10 11 10 6 6 12 12 6 7 12 13 2 1 1 2 5 7 8 6 5 6 8 10 10 9 8
1 1 1 1 1 2 5 2 4 6 13 12 10 10 8 13 4 3 6 1 1 1 2 4 5 7 2 6 12 13 8 6 7 5 6 5 5 4 2 2 6 8 5 6 0 3 3 5 3 2 1 3 3 1 0 3 4 10 16 19 12 13 14 7 5 6 12 9 5 8 12 10 8 5 5 4 4 5 6 5 4 4 5 8 9 9 9 7
Wind_Direction
24 23 23 23 17 9 7 6 5 6 3 8 5 2 0 359 356 356 356 352 349 350 344 341 341 339 338 338 338 338 347 75 357 46 334 239 222 206 177 92 151 142 145 95 70 100 12 9 8 348 18 54 302 45 277 31 62 55 98 113 271 199 145 213 193 184 198 264 283 326 253 174 306 323 283 3 332 319 293 298 267 293 257 226 242 79 134 163
21 18 14 16 19 12 5 359 359 357 356 357 359 355 354 353 353 350 351 345 345 344 342 339 337 336 335 334 335 339 348 56 318 290 246 283 317 172 173 140 144 140 128 84 135 130 112 318 281 46 66 36 306 96 17 254 75 111 122 98 223 188 239 158 202 193 258 257 251 274 297 185 257 138 291 340 288 321 321 288 275 274 284 300 294 309 138 145
12 11 9 5 5 8 5 360 354 351 350 351 353 351 352 350 348 345 344 344 341 341 340 336 335 333 333 333 330 340 354 342 347 336 316 2 273 166 151 143 147 153 142 157 196 144 148 191 183 107 11 70 354 204 38 271 115 228 120 227 249 211 239 228 230 262 185 243 293 310 276 167 259 214 273 230 283 326 281 285 307 287 273 253 272 304 201 174
10 2 359 360 353 354 353 356 350 346 347 347 344 347 349 347 343 342 341 340 339 337 336 336 331 333 331 329 331 330 35 26 340 253 310 341 55 103 138 145 151 153 97 74 155 145 133 89 103 124 70 85 299 35 133 254 99 269 93 187 229 222 195 272 259 235 244 182 284 280 292 320 288 226 114 188 347 286 263 244 230 272 285 282 244 267 220 206
7 359 352 350 349 345 345 345 345 344 343 341 343 342 343 342 340 340 339 338 337 335 336 333 334 330 331 329 330 353 30 51 259 230 279 329 46 61 100 120 134 128 98 138 110 63 104 121 103 47 90 229 346 21 249 248 182 114 208 206 206 91 249 258 258 276 297 310 333 304 330 272 305 335 191 156 234 272 272 268 231 242 262 274 285 267 209 204
8 4 356 346 344 344 340 341 343 340 341 339 340 339 339 339 339 336 337 335 334 334 333 333 332 334 331 326 351 39 67 20 242 275 313 359 81 81 103 113 118 118 141 38 119 30 117 15 84 89 3 86 220 160 268 155 160 244 299 255 237 232 242 256 280 302 12 316 306 304 256 332 10 288 244 216 223 253 252 256 265 258 262 270 277 259 250 238
281 334 339 343 343 343 341 338 335 339 335 337 335 336 335 336 333 335 331 333 330 331 331 330 331 333 334 328 152 65 152 252 322 257 91 92 99 101 102 102 102 95 108 119 46 124 113 90 111 201 102 35 283 194 260 156 211 197 251 250 283 225 234 258 287 306 295 240 267 228 344 307 313 305 87 285 261 235 262 265 259 266 274 288 292 272 256 254
261 254 279 293 335 339 335 336 334 332 334 331 332 332 331 331 331 329 330 327 328 326 326 327 328 330 352 18 8 352 35 251 248 297 213 108 91 101 100 66 97 96 117 173 152 145 131 140 178 142 128 159 221 158 277 330 113 196 254 279 267 323 236 255 258 276 265 264 262 305 296 271 211 257 333 278 279 279 261 268 271 275 293 292 272 277 288 299
259 262 263 255 293 332 335 330 331 330 327 328 327 327 328 327 327 326 324 324 323 322 320 321 321 329 329 60 116 360 263 238 230 196 122 110 109 89 93 122 113 133 152 99 106 167 139 249 171 181 244 195 204 265 317 68 312 202 221 219 291 275 287 282 299 270 259 271 205 323 275 279 271 241 257 258 271 265 287 304 289 314 313 299 298 346 2 354
241 264 258 282 335 324 330 326 328 325 323 323 325 325 325 327 322 322 319 319 316 315 310 316 313 319 27 93 59 235 262 232 60 129 113 118 106 97 38 155 127 120 113 152 100 98 157 214 152 191 133 157 136 227 141 123 229 202 246 242 275 284 319 299 276 286 287 258 229 239 277 277 357 134 285 282 243 261 333 280 294 305 294 313 339 27 32 46
251 285 291 309 337 323 324 323 322 319 319 318 323 324 325 322 322 318 318 312 311 306 306 301 7 19 102 152 145 226 242 68 99 122 121 121 114 119 200 143 160 125 113 74 136 181 217 173 193 104 46 221 115 284 211 234 165 157 249 316 310 325 299 260 263 269 332 299 177 181 246 281 289 150 237 259 274 291 324 300 313 349 320 295 25 60 51 50
283 292 309 320 329 320 314 319 316 315 315 319 320 320 322 322 320 319 315 310 303 303 296 303 268 125 85 114 204 218 346 255 127 137 133 127 134 189 206 184 161 158 166 171 201 245 190 178 129 135 217 42 302 302 319 243 28 316 36 324 295 348 324 283 264 285 120 268 158 154 331 313 172 218 238 246 269 313 315 301 342 44 326 18 64 58 47 38
229 264 287 314 304 313 316 313 314 311 316 318 318 320 322 321 320 319 315 313 307 297 293 298 71 57 109 306 234 238 328 332 117 115 93 68 85 48 37 149 163 165 167 144 172 230 198 144 125 102 205 116 176 247 218 43 299 342 29 263 321 352 319 283 272 336 129 249 130 137 295 271 266 240 257 267 293 324 316 295 18 25 38 57 68 62 51 35
211 226 256 272 288 311 309 310 310 312 314 314 320 321 321 320 319 318 317 311 322 307 307 131 93 83 108 244 263 258 294 3 108 101 163 146 133 291 17 14 79 84 59 109 171 174 120 111 124 147 127 126 275 281 19 332 13 257 255 65 256 345 266 284 40 298 336 231 155 136 190 275 277 282 271 277 304 284 290 301 38 38 53 65 60 58 54 42
208 226 239 266 272 310 295 311 310 312 309 319 321 322 320 319 315 317 305 336 346 10 177 92 61 93 107 266 261 291 264 98 140 229 200 135 150 15 248 9 51 32 77 122 137 165 134 85 72 53 243 285 40 39 342 3 342 341 27 299 331 178 279 298 299 210 206 316 114 110 289 240 266 284 291 292 337 26 275 320 38 58 65 60 55 51 47 43
212 232 258 259 272 283 302 306 311 303 314 317 319 316 310 307 309 314 314 241 286 212 97 75 324 107 5 290 240 5 59 142 234 218 287 141 141 176 168 118 107 19 39 360 29 53 34 88 86 194 307 358 93 92 24 20 334 343 180 273 282 208 263 345 295 101 234 194 14 148 232 327 301 267 293 303 353 340 329 335 41 77 68 59 54 51 41 33
214 212 230 253 272 286 297 303 292 290 291 297 307 317 316 304 241 131 96 54 70 89 97 142 128 149 189 252 102 274 222 234 296 59 47 48 145 153 105 68 70 86 42 37 20 56 343 68 295 40 26 150 140 104 53 353 291 291 324 218 213 223 258 248 301 333 40 75 246 318 237 246 268 295 294 303 342 341 322 339 71 84 77 68 61 54 45 39
214 226 242 229 255 287 285 287 285 288 296 302 315 321 320 354 113 122 54 51 74 104 159 213 159 347 279 58 234 233 34 119 181 183 116 268 124 113 105 109 55 89 61 42 355 94 308 84 39 196 355 32 120 92 148 240 217 240 270 262 291 268 228 246 298 265 2 13 337 298 265 261 267 281 286 287 339 326 305 37 97 86 79 70 63 57 50 45
211 220 219 229 256 267 276 279 289 293 298 316 325 318 58 92 62 99 87 158 105 1 19 222 127 159 210 257 290 16 68 259 52 90 195 137 19 107 73 90 92 118 120 92 267 106 3 61 24 42 237 153 202 183 195 226 201 230 231 243 216 273 280 255 244 279 24 318 316 297 281 299 297 290 298 335 331 344 336 87 88 85 78 72 68 58 51 49
205 218 238 272 289 283 282 283 285 297 314 326 344 347 41 24 7 340 359 50 226 194 170 197 216 291 315 279 209 252 277 31 133 284 182 303 115 108 36 89 35 60 111 193 220 229 129 135 171 206 223 213 214 205 210 226 215 272 6 277 263 259 273 276 276 259 40 319 251 264 303 288 294 295 333 344 23 24 33 91 85 77 74 67 63 61 57 52
220 226 221 230 244 261 274 274 284 296 316 327 318 3 195 183 113 283 297 249 236 264 248 231 198 208 228 126 134 144 136 256 58 260 212 122 108 117 236 75 42 170 254 172 141 274 79 174 228 224 219 212 217 220 233 287 270 235 264 281 279 255 267 252 258 324 331 138 287 301 344 297 287 323 7 4 47 31 32 76 81 83 72 66 63 58 52 51
222 219 223 233 244 249 262 273 285 298 312 296 261 174 154 178 176 194 109 311 317 242 231 248 234 268 266 183 205 168 76 46 280 259 286 142 169 159 267 127 154 205 132 101 46 77 149 194 232 230 227 251 309 169 178 201 237 198 210 244 289 269 265 278 275 306 259 216 261 308 319 286 287 26 30 50 59 51 34 42 54 80 76 68 60 60 54 54
219 219 222 225 237 250 260 276 286 301 328 217 228 102 158 215 299 256 97 144 265 250 210 239 231 229 259 72 246 140 227 215 234 206 200 138 77 223 146 149 193 169 106 163 170 148 220 291 247 244 145 207 273 220 178 168 130 212 259 216 242 238 308 300 284 333 332 87 274 327 304 278 292 83 64 35 66 72 56 57 54 49 69 65 54 49 61 56
216 215 218 220 239 250 269 287 294 304 208 197 137 159 280 97 139 121 75 222 276 297 212 220 205 194 217 199 216 159 199 244 151 246 231 136 156 181 131 174 182 159 205 194 189 182 203 218 240 218 162 173 225 250 193 192 260 240 211 233 246 230 226 183 252 303 285 345 56 350 317 311 297 97 58 61 75 73 56 65 59 52 59 67 71 60 45 54
215 217 213 215 232 254 273 307 315 237 169 116 10 252 232 218 134 167 97 318 342 279 280 313 156 222 204 50 11 170 248 14 216 238 187 160 152 91 224 176 109 211 209 202 204 238 281 265 153 119 141 175 196 262 238 158 235 302 229 205 214 212 230 245 337 17 12 333 335 67 352 313 287 288 158 155 57 59 43 68 55 51 45 46 56 54 47 51
216 219 211 214 227 234 278 343 260 224 158 200 198 188 213 148 118 128 105 59 285 264 4 221 113 233 86 178 20 157 73 240 200 228 117 209 159 151 81 188 153 221 219 182 195 199 212 235 169 205 158 164 186 210 242 149 198 192 270 190 205 191 179 112 26 60 307 221 273 61 72 264 322 324 183 168 94 84 50 63 65 48 46 48 56 54 49 46
216 216 207 214 213 183 202 228 240 68 135 254 208 166 187 82 100 124 47 315 327 214 158 283 82 239 69 243 139 121 137 254 347 21 58 314 151 297 146 237 23 297 164 152 39 267 165 268 211 204 189 172 176 248 237 163 148 228 252 121 114 119 139 197 110 149 233 261 305 1 163 239 304 272 190 165 117 113 89 76 67 63 61 58 61 53 52 47
211 215 208 208 203 182 238 100 6 176 212 182 132 123 95 110 105 36 83 300 276 67 103 250 184 311 89 232 60 148 213 134 87 232 124 296 105 2 127 217 172 190 176 88 200 258 159 200 173 179 184 190 214 212 184 161 148 216 186 128 135 154 180 142 160 218 218 22 283 324 342 288 253 263 21 164 135 166 141 132 100 88 70 70 64 59 52 44
210 212 209 204 197 204 220 237 155 233 174 158 100 69 93 77 78 99 123 215 203 81 280 76 274 38 6 14 52 70 337 346 151 245 314 55 34 138 203 226 160 204 293 170 207 280 305 204 215 159 146 206 223 242 173 159 187 259 163 102 69 67 68 124 123 105 334 85 260 229 190 233 273 269 317 336 246 199 179 154 137 126 117 92 82 62 58 46
208 208 204 201 193 214 222 133 221 184 133 137 112 97 62 60 71 146 167 233 64 230 133 175 123 211 85 126 310 13 131 332 91 353 37 142 324 32 10 145 131 57 238 359 278 222 265 312 159 120 199 208 142 80 150 190 151 121 90 77 5 39 45 36 73 95 51 264 248 211 203 177 290 262 209 155 217 174 136 126 137 126 111 83 75 74 64 62
211 207 204 184 188 186 138 219 212 149 154 128 125 91 77 40 168 171 222 208 54 139 45 133 188 71 129 141 172 297 102 20 12 80 99 19 12 41 33 26 39 51 37 360 301 321 340 349 161 254 105 103 110 81 13 51 77 110 86 115 30 333 11 32 341 44 126 269 263 227 189 164 194 289 294 279 328 193 163 165 162 155 148 134 101 86 72 58
175 199 198 186 187 147 184 230 172 153 150 153 131 92 129 197 199 206 226 126 288 196 146 199 201 148 174 82 111 165 167 36 203 105 143 171 152 149 204 161 166 91 317 225 256 8 291 242 244 315 231 145 108 85 331 19 18 83 83 49 101 261 32 302 25 289 208 225 263 133 119 50 245 223 298 333 341 334 122 155 156 150 146 134 126 108 97 94
130 138 177 189 152 197 236 99 102 128 126 150 127 138 174 157 230 175 325 181 252 122 237 113 192 163 171 115 211 190 156 151 213 193 123 79 134 247 255 169 208 141 204 242 199 11 272 291 321 271 331 212 131 155 209 80 228 116 145 137 105 223 207 255 262 237 303 289 270 150 200 269 251 296 13 324 339 334 105 113 124 134 138 140 138 130 116 98
157 153 159 186 174 193 130 135 135 139 133 147 136 105 76 221 237 102 183 200 182 3 53 88 91 82 140 175 217 155 180 249 153 201 142 153 124 235 268 232 159 265 94 119 182 198 273 334 268 149 234 197 161 195 183 164 162 203 131 152 182 146 155 219 204 215 228 222 285 269 49 228 141 239 333 355 342 46 83 100 104 107 120 132 135 133 136 128
119 119 135 133 138 123 144 155 144 157 133 151 114 140 182 223 46 177 214 164 300 44 64 336 101 96 211 338 294 212 148 188 169 115 176 138 212 185 185 213 202 134 149 123 252 79 214 229 259 237 271 151 181 209 114 102 51 175 159 77 95 230 135 199 204 158 246 317 321 212 199 207 148 287 279 18 39 57 77 106 119 123 132 134 137 153 162 161
109 5 123 159 163 171 156 147 158 168 159 149 122 152 219 178 194 151 203 136 116 149 157 57 80 143 239 323 319 190 349 156 217 121 284 197 213 190 225 206 186 183 156 178 188 199 44 284 282 329 46 165 193 148 220 136 207 212 103 199 210 178 112 56 357 53 73 51 254 147 308 304 232 236 29 24 77 70 90 106 123 141 156 153 163 169 175 174
101 129 108 115 310 152 149 142 149 119 157 180 155 219 195 330 188 161 268 170 216 135 144 146 228 156 198 221 204 200 225 83 230 131 247 168 292 201 221 256 177 188 196 160 272 189 159 240 295 128 233 261 209 143 93 20 150 101 174 232 160 110 114 127 217 326 70 194 267 96 208 264 135 285 115 131 130 189 180 171 162 171 174 173 191 182 182 178
87 56 112 180 203 145 143 166 126 80 105 185 214 209 116 196 276 153 150 110 55 17 128 178 273 155 223 169 244 177 232 165 215 125 231 193 254 154 135 200 211 186 213 222 190 275 127 276 286 238 133 299 10 111 34 348 30 146 194 212 114 260 255 322 86 262 262 256 266 287 215 239 187 222 129 236 195 201 193 191 182 192 198 194 189 198 194 179
101 100 319 301 116 142 154 168 120 124 88 275 247 240 212 219 276 175 197 105 75 112 156 245 150 239 139 178 211 135 144 185 172 191 126 228 202 191 178 170 216 205 268 155 206 204 83 179 293 340 140 272 37 94 204 216 349 33 41 53 296 103 173 138 204 191 134 267 315 287 342 264 198 206 182 205 203 184 175 189 204 195 192 186 189 190 187 179
80 69 272 282 159 131 150 128 93 110 133 213 192 221 299 271 253 254 245 177 253 127 246 179 210 179 206 217 159 172 249 182 160 229 169 252 195 316 159 10 169 324 34 216 176 134 220 130 233 290 302 78 183 187 208 172 171 153 135 276 315 14 226 105 351 141 185 192 210 272 289 272 264 200 187 211 196 182 178 189 189 190 196 201 197 186 183 182
15 99 255 123 156 153 137 106 163 196 202 221 170 223 189 242 241 232 216 179 189 2 160 188 175 204 177 171 258 163 179 180 175 193 193 269 177 260 176 149 308 145 51 69 188 214 146 196 214 344 153 212 235 248 211 179 184 167 172 202 181 142 213 248 260 75 127 183 236 230 258 273 252 89 235 253 218 168 192 165 158 192 205 200 198 198 185 178
117 169 249 77 156 171 155 168 203 166 196 215 213 186 222 189 214 240 197 198 190 182 17 46 278 220 196 218 165 182 168 195 217 209 248 201 254 208 235 19 301 311 152 190 188 236 157 154 112 207 196 201 211 335 277 187 121 175 152 229 171 148 112 143 245 248 26 254 124 191 275 264 126 264 270 232 167 167 162 166 182 194 195 195 197 189 186 181
145 198 343 325 241 178 161 226 187 185 217 220 81 250 200 285 206 202 181 179 195 136 133 193 205 188 254 193 187 181 148 222 178 210 213 231 244 194 251 58 18 38 71 4 36 258 83 108 203 277 331 326 339 318 24 47 90 74 359 77 120 177 183 190 221 193 176 278 245 262 231 257 240 274 289 142 153 162 168 179 181 187 188 193 189 185 186 179
100 120 121 266 199 240 189 204 207 204 216 215 197 225 165 217 167 210 208 199 176 175 177 191 321 216 235 169 157 194 179 210 219 176 252 204 245 66 346 359 106 165 124 239 139 260 108 276 118 347 332 336 349 346 11 355 51 122 235 316 79 86 74 121 91 114 181 206 223 194 252 244 65 353 8 80 124 157 171 191 180 180 193 197 193 192 186 175
116 37 57 313 273 217 209 212 214 211 216 209 182 214 206 225 220 205 180 206 180 162 118 236 194 152 210 166 188 176 211 196 281 236 186 129 223 1 336 43 306 167 242 268 164 117 115 194 124 164 215 233 241 191 243 249 224 235 205 302 281 123 135 101 229 184 231 202 194 226 252 279 318 359 358 30 159 203 212 204 219 200 199 200 196 188 179 169
166 163 185 328 206 259 260 95 93 181 209 211 229 224 211 225 284 273 186 234 191 228 231 162 41 163 179 152 182 190 216 240 190 218 157 234 284 322 245 332 63 166 189 124 91 92 168 148 175 197 202 237 231 193 240 115 95 164 267 158 222 156 184 129 128 200 206 332 285 244 224 266 278 217 214 235 218 203 214 227 220 227 230 222 205 186 178 172
50 128 159 188 124 237 247 166 182 157 206 179 224 171 222 223 219 298 187 230 211 176 208 199 197 165 237 167 193 217 198 213 231 219 209 163 256 236 296 60 351 38 2 105 24 82 87 209 233 199 238 232 147 172 193 131 172 225 204 260 226 211 182 170 199 222 144 115 259 246 225 204 252 261 221 212 222 239 246 236 237 246 235 208 196 183 171 162
125 251 147 219 158 201 201 224 206 167 208 172 242 43 218 207 205 224 115 230 71 177 194 306 212 216 179 179 143 211 191 209 174 213 103 208 89 310 76 349 69 317 16 63 12 133 150 206 282 133 260 140 146 129 134 81 224 232 247 253 266 250 189 188 216 209 188 225 254 268 260 212 259 255 229 177 205 216 219 222 220 219 220 168 157 178 180 178
132 323 216 311 181 261 208 203 181 206 199 193 249 188 234 194 208 208 178 189 199 246 195 231 218 210 201 179 174 226 173 202 229 210 171 177 184 138 182 340 281 18 68 35 16 154 89 270 182 107 227 320 126 139 204 173 219 247 239 244 243 246 259 255 240 228 213 233 250 260 264 262 254 261 263 218 209 205 217 219 202 212 212 195 186 185 183 183
205 136 257 355 47 352 225 178 182 203 223 202 220 222 206 184 218 224 278 176 227 233 183 224 220 195 198 200 200 221 208 210 174 206 221 137 237 168 209 185 163 9 55 157 139 305 113 260 102 305 75 295 324 273 209 178 185 242 254 252 248 258 272 237 238 250 249 259 254 251 257 265 265 263 204 247 207 188 301 247 224 222 204 187 187 187 186 184
263 80 134 116 152 226 97 179 181 196 212 206 222 226 200 223 235 169 227 241 215 214 186 213 208 200 216 199 205 221 195 175 181 198 180 170 193 211 145 262 140 154 132 125 135 299 73 242 56 67 89 299 321 98 308 56 345 251 270 263 250 245 255 245 234 218 210 230 237 245 255 255 266 269 208 261 141 172 202 216 221 218 196 184 185 187 181 184
70 306 87 94 125 243 174 208 162 164 220 213 210 212 206 223 204 164 262 264 119 231 221 204 205 172 200 192 214 212 203 155 140 114 105 57 86 73 91 152 143 153 174 165 236 141 165 135 126 100 124 259 271 36 18 41 13 314 259 249 244 234 236 259 262 230 225 226 229 229 238 242 252 269 296 257 187 216 207 202 207 222 207 185 181 182 186 185